GW1761 Weather Reports


Display with metric or nautical units.
time (UTC)temp
F
wind
direction
speed
MPH
gust
MPH
rain 1hr
in
rain 24hr
in
rain mn
in
humidity
%
barometer
mb
20260504220038 81 360 1.0 9.0 0.00 0.00 0.00 14 997.6
20260504214515 80 360 1.0 9.0 0.00 0.00 0.00 14 997.8
20260504213113 80 360 1.0 6.0 0.00 0.00 0.00 14 998.0
20260504211521 82 360 2.0 9.0 0.00 0.00 0.00 14 998.1
20260504210101 84 360 5.0 9.0 0.00 0.00 0.00 14 998.2
20260504204553 83 360 7.0 10.0 0.00 0.00 0.00 13 998.5
20260504203051 83 360 1.0 5.0 0.00 0.00 0.00 14 998.6
20260504201533 83 360 2.0 6.0 0.00 0.00 0.00 16 998.7
20260504200012 83 360 2.0 9.0 0.00 0.00 0.00 15 999.1
20260504194548 83 360 1.0 4.0 0.00 0.00 0.00 17 999.2
20260504193012 82 360 3.0 10.0 0.00 0.00 0.00 16 999.3
20260504191543 81 360 1.0 6.0 0.00 0.00 0.00 18 999.6
20260504190029 81 360 5.0 12.0 0.00 0.00 0.00 19 999.8
20260504184509 80 360 2.0 8.0 0.00 0.00 0.00 20 1000.1
20260504183029 80 360 3.0 8.0 0.00 0.00 0.00 20 1000.2
20260504181511 80 360 2.0 9.0 0.00 0.00 0.00 21 1000.4
20260504180048 80 360 3.0 9.0 0.00 0.00 0.00 23 1000.5
20260504174521 79 360 3.0 9.0 0.00 0.00 0.00 24 1001.1
20260504173042 79 360 4.0 10.0 0.00 0.00 0.00 24 1001.2
20260504171544 78 360 5.0 9.0 0.00 0.00 0.00 24 1001.3
20260504081533 44 360 0.0 1.0 0.00 0.00 0.00 66 1002.6
20260504044546 56 360 2.0 4.0 0.00 0.00 0.00 43 1003.6
20260504043034 56 360 3.0 5.0 0.00 0.00 0.00 43 1003.6
20260504041545 55 360 0.0 3.0 0.00 0.00 0.00 44 1003.8
20260504040031 55 360 2.0 3.0 0.00 0.00 0.00 44 1003.9
20260504034552 56 360 1.0 4.0 0.00 0.00 0.00 44 1004.0
20260504033032 58 360 0.0 4.0 0.00 0.00 0.00 40 1004.1
20260504031514 58 360 1.0 4.0 0.00 0.00 0.00 38 1004.1
20260504030036 60 360 1.0 4.0 0.00 0.00 0.00 36 1004.0
20260504024555 61 360 2.0 4.0 0.00 0.00 0.00 34 1003.8
20260504023038 62 360 3.0 6.0 0.00 0.00 0.00 32 1003.7
20260504021557 64 360 0.0 4.0 0.00 0.00 0.00 30 1003.6
20260504020117 66 360 0.0 1.0 0.00 0.00 0.00 29 1003.3
20260504014610 68 360 0.0 1.0 0.00 0.00 0.00 29 1003.3
20260504014502 68 360 0.0 1.0 0.00 0.00 0.00 30 1003.3
20260504013058 70 360 0.0 2.0 0.00 0.00 0.00 27 1003.1
20260504011512 73 360 0.0 4.0 0.00 0.00 0.00 23 1003.3
20260504010050 74 360 2.0 5.0 0.00 0.00 0.00 21 1003.2
20260504004514 75 360 1.0 3.0 0.00 0.00 0.00 20 1003.4
20260504003050 76 360 1.0 6.0 0.00 0.00 0.00 18 1003.5
20260504001518 78 360 2.0 5.0 0.00 0.00 0.00 18 1003.6
20260504000105 77 360 4.0 8.0 0.00 0.00 0.00 17 1003.8
20260503234523 76 360 1.0 4.0 0.00 0.00 0.00 18 1004.0
20260503233101 78 360 4.0 6.0 0.00 0.00 0.00 16 1004.2
20260503231519 79 360 2.0 6.0 0.00 0.00 0.00 16 1004.3
20260503230112 79 360 2.0 6.0 0.00 0.00 0.00 16 1004.4
20260503224539 79 360 1.0 4.0 0.00 0.00 0.00 16 1004.4
20260503223023 80 360 6.0 10.0 0.00 0.00 0.00 16 1004.6
20260503221543 80 360 4.0 9.0 0.00 0.00 0.00 16 1004.8